This is the latest recevied weather packets stored in our database for station/object N9CQL. If no packets are shown the sender has not sent any weather packets the latest 10 day(s).
| Time | Temp. | Humidity | Pressure | Rain* | Wind** | Luminosity | Snow |
|---|---|---|---|---|---|---|---|
| 1777474427 | 12.78° C | 72% | 1011.9 hPa | 0 mm | - | 95 W/m² | - |
| 1777474123 | 12.78° C | 72% | 1011.9 hPa | 0 mm | - | 124 W/m² | - |
| 1777473821 | 12.78° C | 72% | 1011.9 hPa | 0 mm | - | 156 W/m² | - |
| 1777473518 | 12.78° C | 72% | 1011.7 hPa | 0 mm | - | 109 W/m² | - |
| 1777473213 | 12.78° C | 72% | 1011.6 hPa | 0 mm | - | 69 W/m² | - |
| 1777472910 | 12.78° C | 72% | 1011.6 hPa | 0 mm | - | 129 W/m² | - |
| 1777472607 | 12.78° C | 72% | 1011.7 hPa | 0 mm | - | 161 W/m² | - |
| 1777472303 | 12.78° C | 74% | 1011.6 hPa | 0 mm | - | 301 W/m² | - |
| 1777472001 | 12.22° C | 76% | 1011.9 hPa | 0 mm | - | 205 W/m² | - |
| 1777471696 | 12.22° C | 76% | 1011.9 hPa | 0 mm | - | 126 W/m² | - |
| 1777471393 | 12.22° C | 76% | 1011.9 hPa | 0 mm | - | 127 W/m² | - |
| 1777471089 | 12.22° C | 76% | 1011.8 hPa | 0 mm | - | 64 W/m² | - |
| 1777470786 | 12.78° C | 75% | 1011.8 hPa | 0 mm | - | 157 W/m² | - |
| 1777470483 | 12.22° C | 75% | 1011.9 hPa | 0 mm | - | 196 W/m² | - |
| 1777470179 | 12.22° C | 75% | 1011.8 hPa | 0 mm | - | 126 W/m² | - |
| 1777469875 | 12.22° C | 75% | 1011.7 hPa | 0 mm | - | 74 W/m² | - |
| 1777469571 | 11.67° C | 76% | 1011.8 hPa | 0 mm | - | 67 W/m² | - |
| 1777469266 | 11.67° C | 76% | 1011.8 hPa | 0 mm | - | 56 W/m² | - |
| 1777468962 | 11.67° C | 76% | 1011.6 hPa | 0 mm | - | 51 W/m² | - |
| 1777468657 | 11.67° C | 76% | 1011.8 hPa | 0 mm | - | 43 W/m² | - |
| 1777468354 | 11.67° C | 77% | 1011.7 hPa | 0 mm | - | 52 W/m² | - |
| 1777468050 | 11.67° C | 77% | 1011.7 hPa | 0 mm | - | 77 W/m² | - |
| 1777467746 | 11.67° C | 77% | 1011.8 hPa | 0 mm | - | 103 W/m² | - |
| 1777467441 | 11.67° C | 77% | 1011.7 hPa | 0 mm | - | 106 W/m² | - |
| 1777467137 | 11.67° C | 77% | 1011.9 hPa | 0 mm | - | 94 W/m² | - |
* Rain latest hour (hover to see other rain measurements)
** Current wind speed in m/s (hover to see current wind gust speed)